Location: Kermapucano
(48.0667°N, 3.3000°W)
Time: 20:45:07
(UTC+00:00)

Lacrosse 4 Rocket - Pass Details

Date: 29 November 2020
Orbit: 537 x 621 km, 68.0° (Epoch: 27 January)

Event Time Altitude Azimuth Distance (km) Brightness Sun altitude
Exits shadow 05:14:30 30° 191° (S) 1,081 2.7 -23.6°
Drops below altitude 10° 05:17:00 10° 171° (S) 1,951 4.3 -23.2°
Sets 05:19:20 0° 165° (SSE) 2,861 5.3 -22.8°
